Wind_Speed
33 30 30 30 28 26 23 23 22 21 18 15 12 13 10 11 12 12 11 10 8 9 11 13 14 3 1 5 4 3 6 3 2 7 0 7 8 6 4 2 2 8 7 11
30 29 25 28 29 27 25 23 22 22 20 17 14 13 13 14 16 15 15 14 15 13 11 13 9 9 11 12 10 8 7 5 0 4 5 2 7 8 7 3 4 10 9 7
31 26 26 26 30 28 24 24 23 23 22 20 16 15 15 16 20 18 18 19 19 19 19 16 18 17 12 13 11 7 10 10 6 6 3 7 5 9 13 9 9 13 14 12
28 28 24 25 28 26 23 23 24 23 22 23 20 18 18 17 15 18 20 20 24 26 24 24 22 23 13 12 13 10 10 13 14 15 14 9 9 8 11 17 19 22 25 22
29 28 26 26 25 22 19 21 20 22 22 22 21 21 21 22 17 17 18 20 23 29 30 29 29 27 20 20 21 22 13 14 19 19 17 19 18 14 14 14 19 20 25 27
30 32 26 27 23 20 17 16 19 19 20 20 21 21 21 25 22 22 18 17 23 24 26 26 27 27 28 27 18 17 16 16 20 22 20 23 23 21 23 19 19 18 19 14
34 33 25 26 24 19 15 12 15 15 16 17 22 21 24 25 25 28 25 21 21 20 24 27 30 25 29 31 25 17 20 23 21 26 22 26 27 28 27 22 16 18 26 23
37 35 32 28 26 18 18 16 17 14 14 15 20 23 24 26 28 32 26 25 24 24 20 23 31 37 31 32 31 25 24 26 27 29 28 27 29 32 31 33 23 22 29 30
39 38 36 30 26 22 21 20 19 18 16 17 19 24 25 24 28 35 26 26 28 29 26 25 23 35 38 35 35 35 32 29 28 29 31 33 30 32 32 37 41 41 38 42
42 41 40 32 30 27 22 21 20 20 21 20 20 23 24 27 28 33 27 28 28 29 28 26 28 28 33 37 34 36 37 35 33 33 31 33 36 36 37 38 44 51 50 50
44 45 42 38 35 32 28 23 21 22 25 25 21 24 25 28 29 31 26 29 27 26 27 26 27 29 29 31 34 34 39 39 38 40 44 40 42 45 48 53 53 56 59 61
52 50 42 41 41 35 33 30 28 27 27 26 25 27 28 29 31 31 25 26 25 24 24 26 25 28 30 29 31 32 35 39 43 45 46 49 50 52 53 56 61 63 66 67
56 53 52 49 43 43 40 38 33 29 26 26 29 32 32 32 32 35 26 25 25 24 22 23 24 25 27 30 29 32 37 39 45 47 49 52 54 57 60 62 64 66 71 74
61 57 56 54 51 47 43 40 37 32 29 32 31 35 34 37 35 35 28 26 27 26 22 24 24 24 26 29 30 34 37 40 43 46 50 54 58 62 63 67 72 75 77 77
67 64 62 61 57 51 46 45 42 37 34 34 37 35 36 41 39 38 31 28 30 27 26 26 23 25 28 30 31 32 35 37 41 44 48 52 56 58 60 63 65 66 68 70
73 70 67 67 66 61 54 50 47 40 39 39 39 35 37 42 42 42 34 31 31 31 28 28 29 27 28 28 30 33 35 38 42 44 47 51 54 56 58 60 62 64 65 66
72 72 71 69 71 67 57 53 51 47 45 43 40 41 41 46 46 44 37 34 33 33 31 31 31 32 30 31 34 34 37 37 38 41 41 44 48 50 53 56 58 59 59 60
76 73 71 71 71 64 62 58 54 51 48 43 44 43 45 47 49 45 41 36 34 32 34 34 33 33 34 36 37 34 36 33 33 37 37 43 45 49 53 54 55 55 55 54
80 77 73 73 72 66 62 57 56 53 51 49 48 45 46 47 48 48 44 37 38 34 35 35 35 35 32 33 36 33 34 31 37 40 46 53 55 57 59 55 54 53 52 51
81 79 78 78 74 67 64 64 61 59 54 51 50 52 54 50 51 49 44 42 40 37 37 38 36 36 36 37 38 35 36 39 44 43 42 45 51 56 56 53 52 52 53 53
74 73 74 75 74 70 66 66 64 59 55 56 57 59 58 50 51 48 47 44 42 39 38 37 36 37 37 38 38 38 41 46 45 41 46 50 54 56 55 52 53 55 53 51
65 70 67 69 70 69 68 70 67 64 64 61 60 59 52 48 51 50 47 47 44 40 37 36 34 36 37 38 38 40 43 44 42 43 50 53 54 55 54 52 52 53 53 51
55 59 63 62 63 60 64 66 65 62 59 55 55 52 47 48 50 47 48 46 43 39 38 35 36 36 37 38 38 41 42 40 43 47 53 56 55 58 60 57 53 53 52 50
41 46 50 53 53 55 57 57 58 53 52 51 52 46 45 46 46 45 44 42 43 37 36 36 36 37 38 39 40 43 43 41 44 50 56 56 58 61 62 59 55 51 51 50
31 34 40 45 50 52 51 52 52 47 48 47 45 41 43 40 41 43 44 44 42 38 36 36 37 38 38 39 41 39 37 42 47 51 54 57 59 64 61 57 56 52 50 47
34 37 36 45 46 45 44 47 49 44 45 44 41 41 36 34 37 42 43 41 41 38 36 34 37 38 39 40 37 37 40 42 48 54 56 60 63 65 61 57 54 52 47 48
Wind_Direction
284 285 293 293 292 290 289 288 290 292 293 290 268 258 246 254 264 267 194 207 204 218 217 173 161 201 59 35 23 2 3 38 60 68 283 179 191 223 271 232 108 262 308 314
277 281 285 284 285 289 285 285 286 287 289 286 274 253 241 237 243 251 242 212 216 215 221 208 187 249 266 266 301 320 324 307 12 153 140 285 271 255 247 234 259 265 307 324
272 276 274 276 279 282 282 284 286 288 292 288 282 278 254 223 233 230 250 241 227 217 203 212 234 254 266 253 241 295 304 296 271 242 236 195 191 285 268 245 260 263 258 266
268 269 267 264 266 275 285 286 290 293 295 296 300 287 283 259 243 228 223 239 243 235 225 231 250 263 242 254 232 263 302 281 279 266 266 276 285 241 259 273 259 235 234 251
260 261 257 259 264 271 274 277 281 284 285 291 292 287 283 272 262 245 228 221 242 246 243 245 259 261 241 259 253 272 268 268 284 274 272 270 280 281 270 267 268 279 257 274
253 253 253 254 256 260 263 267 275 277 275 279 284 282 277 277 279 271 254 234 236 246 253 244 229 233 260 270 260 271 274 283 274 283 281 270 268 274 276 271 272 265 248 259
247 252 245 244 251 254 264 267 270 276 282 282 276 276 274 277 280 282 280 280 266 243 246 241 231 247 263 274 280 270 283 284 269 264 257 262 271 284 271 273 281 280 266 258
242 243 242 242 245 249 263 267 270 276 275 273 272 272 273 277 281 279 282 285 281 278 267 250 243 242 249 260 270 268 273 281 274 271 265 263 261 272 270 260 273 262 275 271
240 239 242 239 245 246 256 266 271 275 272 272 275 271 272 274 273 279 291 290 289 285 282 281 265 249 246 254 261 269 270 273 263 268 266 265 267 255 265 261 263 264 263 267
236 239 239 237 239 247 250 264 271 272 271 271 271 275 275 272 275 279 288 287 289 289 287 281 279 274 256 255 266 266 267 269 269 257 269 276 274 268 276 277 271 271 268 278
239 243 239 238 242 244 252 259 267 271 272 270 276 276 277 272 273 276 284 285 287 288 288 285 281 281 278 272 272 269 266 268 271 268 274 276 279 278 280 282 286 285 284 284
240 243 244 245 246 247 255 254 256 264 266 271 270 270 277 277 274 275 281 287 291 293 291 288 286 284 278 275 279 281 280 275 276 275 278 277 280 281 282 283 285 283 286 288
242 244 247 247 244 250 249 252 252 262 272 266 267 268 274 279 279 279 278 284 286 286 288 284 281 282 280 280 278 272 273 275 276 277 278 278 279 282 282 284 286 287 289 292
243 245 248 250 247 247 251 254 256 258 263 261 265 267 267 271 274 277 280 279 282 286 290 289 283 284 285 282 276 269 265 270 276 278 281 284 285 285 286 288 289 289 289 291
244 245 247 249 251 250 252 257 260 259 262 265 264 264 268 269 271 273 279 275 278 284 290 294 293 292 286 283 281 280 281 283 284 285 285 286 286 289 291 291 291 292 295 297
242 244 246 249 252 253 253 256 258 260 261 263 259 260 265 268 270 271 274 276 274 277 285 292 294 294 293 294 295 297 296 296 296 294 294 296 298 297 299 301 302 300 298 295
242 243 245 247 250 253 254 256 258 258 262 263 256 258 267 266 267 271 271 272 271 275 278 285 287 291 291 301 301 297 296 296 297 299 303 305 308 309 305 301 299 298 297 297
242 243 244 246 249 253 254 255 258 259 260 259 255 263 264 262 265 268 270 272 271 270 275 281 287 290 291 294 296 294 295 294 298 298 301 308 309 310 310 307 305 303 298 297
241 243 244 246 249 249 254 256 256 256 255 257 261 260 258 259 262 264 267 271 269 267 269 273 278 281 286 290 291 293 292 290 292 303 308 310 305 310 312 307 305 305 304 302
239 241 243 245 248 249 250 252 254 255 257 257 256 259 258 257 258 261 266 266 268 267 268 271 276 280 285 287 292 290 289 288 295 299 321 322 314 313 314 314 313 313 311 307
239 242 243 245 247 247 248 251 253 255 254 255 257 257 259 255 255 258 260 263 264 265 269 273 277 284 288 289 289 291 290 296 299 304 323 321 319 322 319 317 316 314 311 305
236 237 239 241 243 245 246 249 251 253 254 255 255 255 255 251 248 252 257 258 261 263 266 272 279 285 290 290 293 294 297 300 302 301 315 319 325 324 321 315 315 313 310 307
233 233 234 237 240 241 243 245 248 250 251 251 250 249 250 246 245 250 254 259 261 260 263 270 278 285 287 289 293 296 297 304 306 305 308 320 322 326 325 319 314 311 310 309
234 231 231 231 234 234 238 240 244 244 245 244 245 244 244 240 241 247 250 255 257 257 264 271 278 282 284 290 295 296 300 303 303 305 310 317 320 323 322 319 313 313 314 311
229 231 227 225 226 227 230 234 238 237 237 238 238 233 232 233 241 245 243 252 259 262 266 271 276 279 287 293 296 300 305 306 308 309 311 318 319 322 320 317 315 314 314 310
224 223 222 224 221 224 224 229 234 231 229 232 232 227 222 231 238 246 250 253 258 262 269 269 274 282 289 291 294 302 306 305 306 311 315 318 320 322 319 316 315 314 312 312
Height
10972 10972 10971 10971 10972 10973 10974 10972 10970 10968 10968 10968 10968 10968 10969 10969 10967 10966 10968 10968 10967 10967 10968 10968 10968 10967 10967 10967 10968 10969 10968 10965 10964 10964 10965 10964 10964 10964 10963 10961 10959 10960 10959 10958
10966 10968 10969 10966 10966 10968 10968 10966 10965 10964 10964 10965 10965 10964 10965 10965 10964 10964 10964 10965 10965 10965 10966 10969 10967 10966 10966 10967 10967 10967 10966 10966 10965 10964 10963 10962 10962 10961 10960 10958 10957 10957 10956 10955
10960 10963 10964 10963 10960 10961 10963 10962 10961 10960 10960 10960 10961 10961 10960 10962 10961 10962 10962 10961 10962 10962 10964 10968 10965 10964 10964 10964 10963 10962 10962 10962 10963 10962 10961 10960 10957 10957 10958 10957 10957 10957 10956 10955
10955 10957 10960 10959 10957 10957 10958 10957 10957 10957 10955 10954 10955 10956 10955 10954 10956 10958 10958 10956 10957 10958 10959 10960 10960 10960 10961 10960 10959 10958 10958 10957 10957 10957 10957 10958 10956 10954 10952 10952 10953 10954 10954 10953
10948 10951 10953 10953 10954 10955 10956 10953 10953 10952 10952 10951 10950 10950 10949 10948 10951 10952 10952 10954 10952 10950 10952 10955 10953 10953 10955 10956 10956 10953 10952 10952 10952 10952 10950 10950 10950 10950 10948 10946 10945 10946 10947 10945
10942 10942 10948 10947 10950 10951 10952 10951 10950 10949 10949 10949 10946 10945 10944 10943 10945 10944 10946 10949 10948 10946 10945 10947 10946 10948 10949 10949 10950 10949 10948 10948 10948 10947 10948 10946 10946 10945 10944 10943 10941 10940 10939 10938
10933 10935 10941 10942 10945 10947 10947 10947 10946 10946 10945 10945 10943 10941 10939 10939 10939 10936 10939 10942 10942 10943 10943 10942 10943 10942 10942 10942 10944 10945 10944 10943 10942 10943 10942 10944 10942 10941 10940 10939 10937 10935 10933 10930
10924 10927 10932 10936 10939 10942 10942 10943 10942 10942 10942 10941 10939 10937 10937 10935 10934 10929 10934 10934 10934 10935 10937 10937 10937 10937 10939 10938 10937 10940 10940 10940 10938 10936 10936 10937 10936 10935 10935 10934 10931 10927 10926 10924
10916 10919 10923 10929 10933 10936 10937 10937 10937 10936 10936 10936 10935 10932 10932 10932 10930 10924 10931 10929 10929 10928 10930 10930 10930 10930 10931 10933 10932 10933 10933 10933 10933 10931 10931 10930 10930 10928 10926 10925 10923 10919 10917 10915
10907 10910 10916 10923 10926 10929 10931 10932 10933 10931 10930 10930 10929 10927 10927 10926 10925 10921 10926 10924 10924 10923 10923 10924 10923 10923 10924 10925 10926 10926 10926 10926 10926 10926 10925 10925 10923 10921 10921 10918 10914 10911 10909 10904
10898 10899 10907 10915 10918 10922 10925 10927 10928 10926 10924 10923 10924 10922 10921 10919 10920 10919 10921 10919 10919 10918 10917 10917 10917 10915 10916 10916 10916 10917 10918 10918 10919 10919 10918 10916 10915 10912 10909 10906 10903 10901 10897 10893
10886 10889 10900 10904 10908 10914 10916 10918 10920 10919 10919 10918 10918 10916 10914 10914 10913 10914 10916 10914 10914 10912 10912 10911 10910 10910 10909 10910 10910 10910 10909 10910 10909 10909 10907 10905 10903 10900 10897 10893 10890 10885 10882 10877
10873 10881 10884 10891 10899 10901 10905 10906 10911 10914 10915 10914 10912 10908 10908 10907 10907 10906 10911 10909 10907 10906 10906 10905 10904 10903 10903 10902 10903 10903 10903 10901 10899 10897 10895 10893 10890 10887 10884 10880 10875 10869 10864 10858
10862 10868 10872 10876 10882 10890 10896 10899 10903 10907 10908 10905 10906 10903 10902 10900 10900 10900 10904 10904 10901 10901 10900 10900 10898 10897 10896 10895 10894 10893 10892 10891 10889 10886 10884 10881 10877 10873 10868 10863 10857 10851 10846 10841
10850 10855 10859 10860 10867 10878 10886 10890 10894 10898 10899 10899 10897 10897 10894 10891 10892 10893 10897 10898 10896 10895 10893 10892 10892 10891 10890 10888 10886 10885 10883 10881 10878 10876 10872 10868 10862 10857 10852 10847 10841 10834 10826 10818
10833 10840 10846 10849 10853 10862 10873 10879 10883 10888 10889 10889 10888 10890 10888 10884 10884 10885 10890 10890 10889 10888 10886 10885 10884 10882 10881 10880 10878 10876 10873 10870 10867 10864 10859 10853 10848 10842 10836 10829 10822 10815 10808 10803
10817 10824 10830 10837 10837 10845 10862 10868 10870 10874 10877 10878 10881 10880 10880 10876 10876 10876 10881 10882 10881 10880 10879 10878 10876 10874 10873 10870 10868 10866 10863 10860 10855 10850 10846 10840 10834 10828 10822 10815 10809 10802 10794 10786
10800 10809 10817 10820 10824 10838 10845 10852 10858 10861 10864 10867 10868 10872 10869 10866 10865 10867 10870 10873 10873 10872 10870 10869 10867 10866 10864 10862 10860 10857 10853 10849 10845 10841 10837 10832 10825 10819 10811 10803 10795 10786 10779 10772
10782 10792 10801 10805 10811 10824 10832 10839 10842 10847 10849 10853 10857 10859 10858 10858 10857 10856 10860 10864 10864 10863 10863 10861 10859 10858 10857 10855 10853 10849 10845 10841 10837 10834 10830 10823 10814 10806 10798 10789 10780 10771 10762 10756
10765 10776 10784 10789 10799 10812 10817 10819 10827 10831 10839 10841 10842 10844 10843 10848 10847 10848 10852 10854 10855 10854 10853 10853 10852 10851 10850 10847 10844 10840 10837 10832 10830 10827 10820 10809 10802 10793 10782 10772 10764 10756 10748 10741
10751 10761 10769 10777 10785 10795 10802 10804 10809 10818 10824 10825 10827 10828 10830 10838 10839 10840 10841 10843 10844 10845 10845 10844 10843 10843 10841 10839 10835 10832 10828 10824 10819 10815 10807 10796 10787 10777 10768 10760 10752 10745 10739 10733
10737 10743 10757 10761 10768 10779 10786 10786 10796 10801 10802 10809 10812 10815 10821 10826 10826 10827 10830 10832 10835 10836 10835 10835 10835 10834 10832 10830 10826 10822 10819 10815 10809 10803 10795 10786 10777 10768 10759 10750 10741 10735 10728 10720
10720 10729 10735 10746 10753 10762 10765 10769 10777 10783 10789 10795 10798 10805 10810 10812 10815 10818 10820 10825 10827 10827 10827 10827 10827 10826 10824 10820 10817 10814 10810 10804 10798 10792 10785 10776 10767 10757 10748 10738 10729 10721 10713 10705
10709 10715 10723 10731 10737 10745 10750 10757 10761 10771 10776 10782 10786 10794 10797 10800 10805 10809 10813 10814 10816 10819 10819 10819 10818 10817 10814 10811 10808 10804 10798 10793 10788 10781 10774 10764 10755 10746 10736 10728 10717 10707 10698 10691
10699 10705 10711 10717 10722 10728 10735 10742 10748 10758 10764 10769 10774 10781 10785 10791 10795 10801 10803 10806 10808 10810 10811 10811 10809 10807 10805 10801 10797 10793 10789 10783 10778 10770 10762 10753 10743 10734 10723 10714 10702 10692 10684 10678
10689 10693 10699 10701 10710 10717 10725 10731 10739 10748 10752 10757 10765 10771 10777 10783 10789 10792 10796 10799 10801 10802 10803 10802 10800 10798 10796 10792 10788 10783 10779 10773 10767 10759 10750 10741 10730 10719 10709 10698 10688 10679 10671 10664